Waseca, MN

5:19 PM CDT on June 27, 2017 (GMT -0500)
Waseca Municipal

Weather History for KACQ - April, 2013

Change the Weather History Date:

Saturday, April 27, 2013

  Actual Average Record
Temperature  
Mean Temperature 54 °F -  
Max Temperature 71 °F 64 °F 85 °F (1952)
Min Temperature 37 °F 40 °F 21 °F (1934)
Degree Days  
Heating Degree Days 11    
Growing Degree Days 4 (Base 50)    
Moisture  
Dew Point 41 °F    
Average Humidity 62    
Maximum Humidity 93    
Minimum Humidity 31    
Precipitation  
Precipitation 0.00 in - - ()
Sea Level Pressure  
Sea Level Pressure 30.07 in    
Wind  
Wind Speed 6 mph (South)    
Max Wind Speed 18 mph    
Max Gust Speed 23 mph    
Visibility 9 miles    
Events      
Averages and records for this station are not official NWS values.
T = Trace of Precipitation, MM = Missing Value Source: NWS Daily Summary

Daily Weather History Graph

Daily Weather History Graph

Search for Another Location

Airport or City:

Trip Planner

Search our weather history database for the weather conditions in past years. The results will help you decide how hot, cold, wet, or windy it might be!

Date:

Astronomy

Apr. 27, 2013 Rise Set
Actual Time 6:11 AM CDT 8:13 PM CDT
Civil Twilight 5:39 AM CDT 8:44 PM CDT
Nautical Twilight 5:01 AM CDT 9:23 PM CDT
Astronomical Twilight 4:19 AM CDT 10:05 PM CDT
Moon 10:47 PM CDT 7:26 AM CDT
Length of Visible Light 15h 04m
Length of Day
14h 02m
Waning Gibbous, 95% of the Moon is Illuminated
Apr 27
Waning Gibbous
May 2
Last Quarter
May 9
New
May 17
First Quarter
May 24
Full

Hourly Weather History & Observations

Time (CDT) Temp. Windchill Dew Point Humidity Pressure Visibility Wind Dir Wind Speed Gust Speed Precip Events Conditions
12:16 AM 50.0 °F - 39.2 °F 66% 30.16 in 10.0 mi ESE 6.9 mph - N/A   Clear
12:37 AM 50.0 °F - 41.0 °F 71% 30.16 in 10.0 mi East 5.8 mph - N/A   Clear
12:56 AM 48.2 °F - 37.4 °F 66% 30.16 in 10.0 mi Calm Calm - N/A   Clear
1:16 AM 44.6 °F 40.2 °F 35.6 °F 71% 30.15 in 10.0 mi North 8.1 mph - N/A   Clear
1:36 AM 46.4 °F - 37.4 °F 71% 30.15 in 10.0 mi Calm Calm - N/A   Clear
1:56 AM 48.2 °F - 35.6 °F 62% 30.15 in 10.0 mi North 3.5 mph - N/A   Clear
2:17 AM 42.8 °F 37.5 °F 33.8 °F 70% 30.14 in 10.0 mi North 9.2 mph - N/A   Clear
2:37 AM 42.8 °F - 35.6 °F 76% 30.14 in 10.0 mi Calm Calm - N/A   Clear
2:56 AM 42.8 °F - 35.6 °F 76% 30.14 in 10.0 mi Calm Calm - N/A   Clear
3:17 AM 41.0 °F 38.0 °F 33.8 °F 76% 30.13 in 10.0 mi ESE 4.6 mph - N/A   Clear
3:37 AM 41.0 °F - 35.6 °F 81% 30.13 in 10.0 mi Calm Calm - N/A   Clear
3:56 AM 41.0 °F - 35.6 °F 81% 30.13 in 10.0 mi Calm Calm - N/A   Clear
4:17 AM 37.4 °F 33.8 °F 33.8 °F 87% 30.13 in 10.0 mi ESE 4.6 mph - N/A   Clear
4:37 AM 37.4 °F - 33.8 °F 87% 30.13 in 10.0 mi Calm Calm - N/A   Clear
4:56 AM 37.4 °F - 33.8 °F 87% 30.13 in 10.0 mi Calm Calm - N/A   Clear
5:17 AM 37.4 °F 34.9 °F 35.6 °F 93% 30.13 in 10.0 mi SSE 3.5 mph - N/A   Clear
5:37 AM 37.4 °F - 35.6 °F 93% 30.13 in 7.0 mi Calm Calm - N/A   Clear
5:56 AM 37.4 °F 34.9 °F 35.6 °F 93% 30.13 in 7.0 mi SSE 3.5 mph - N/A   Clear
6:17 AM 37.4 °F 34.9 °F 35.6 °F 93% 30.13 in 2.5 mi SSE 3.5 mph - N/A   Clear
6:37 AM 37.4 °F 32.8 °F 35.6 °F 93% 30.13 in 2.0 mi SSE 5.8 mph - N/A   Clear
6:56 AM 37.4 °F 33.8 °F 35.6 °F 93% 30.13 in 1.8 mi South 4.6 mph - N/A   Mist
7:17 AM 41.0 °F 36.4 °F 39.2 °F 93% 30.13 in 3.0 mi SSE 6.9 mph - N/A   Clear
7:37 AM 42.8 °F 38.0 °F 41.0 °F 93% 30.13 in 5.0 mi South 8.1 mph - N/A   Clear
7:56 AM 42.8 °F 37.5 °F 41.0 °F 93% 30.13 in 7.0 mi South 9.2 mph - N/A   Clear
8:17 AM 44.6 °F 40.2 °F 42.8 °F 93% 30.13 in 7.0 mi South 8.1 mph - N/A   Clear
8:36 AM 46.4 °F 41.9 °F 44.6 °F 93% 30.13 in 10.0 mi South 9.2 mph - N/A   Clear
8:57 AM 50.0 °F - 44.6 °F 82% 30.13 in 10.0 mi South 9.2 mph - N/A   Clear
9:17 AM 51.8 °F - 44.6 °F 76% 30.13 in 10.0 mi South 5.8 mph - N/A   Clear
9:36 AM 53.6 °F - 44.6 °F 72% 30.12 in 10.0 mi SSW 8.1 mph - N/A   Clear
9:57 AM 55.4 °F - 44.6 °F 67% 30.12 in 10.0 mi South 9.2 mph - N/A   Clear
10:16 AM 55.4 °F - 44.6 °F 67% 30.12 in 10.0 mi South 8.1 mph - N/A   Clear
10:37 AM 59.0 °F - 46.4 °F 63% 30.11 in 10.0 mi SSE 10.4 mph - N/A   Clear
10:57 AM 59.0 °F - 44.6 °F 59% 30.11 in 10.0 mi South 5.8 mph - N/A   Clear
11:16 AM 60.8 °F - 44.6 °F 55% 30.11 in 10.0 mi SSW 8.1 mph - N/A   Clear
11:37 AM 62.6 °F - 44.6 °F 52% 30.11 in 10.0 mi SSW 4.6 mph - N/A   Clear
11:57 AM 62.6 °F - 44.6 °F 52% 30.11 in 10.0 mi SW 6.9 mph - N/A   Clear
12:16 PM 64.4 °F - 44.6 °F 49% 30.10 in 10.0 mi South 6.9 mph - N/A   Clear
12:37 PM 66.2 °F - 42.8 °F 43% 30.09 in 10.0 mi Calm Calm - N/A   Clear
12:57 PM 68.0 °F - 42.8 °F 40% 30.08 in 10.0 mi South 5.8 mph - N/A   Clear
1:16 PM 69.8 °F - 42.8 °F 38% 30.08 in 10.0 mi South 9.2 mph - N/A   Clear
1:37 PM 69.8 °F - 41.0 °F 35% 30.07 in 10.0 mi West 4.6 mph 9.2 mph N/A   Clear
1:57 PM 71.6 °F - 41.0 °F 33% 30.06 in 10.0 mi South 6.9 mph - N/A   Clear
2:16 PM 71.6 °F - 41.0 °F 33% 30.05 in 10.0 mi SW 9.2 mph 16.1 mph N/A   Clear
2:37 PM 71.6 °F - 41.0 °F 33% 30.05 in 10.0 mi SSE 11.5 mph - N/A   Clear
2:57 PM 71.6 °F - 39.2 °F 31% 30.04 in 10.0 mi South 8.1 mph 20.7 mph N/A   Clear
3:16 PM 71.6 °F - 39.2 °F 31% 30.03 in 10.0 mi SSW 9.2 mph 17.3 mph N/A   Scattered Clouds
3:37 PM 71.6 °F - 39.2 °F 31% 30.01 in 10.0 mi SSW 12.7 mph 18.4 mph N/A   Scattered Clouds
3:57 PM 71.6 °F - 41.0 °F 33% 30.01 in 10.0 mi South 13.8 mph 17.3 mph N/A   Mostly Cloudy
4:16 PM 71.6 °F - 42.8 °F 35% 30.00 in 10.0 mi South 17.3 mph - N/A   Mostly Cloudy
4:37 PM 71.6 °F - 42.8 °F 35% 30.00 in 10.0 mi South 12.7 mph - N/A   Scattered Clouds
4:57 PM 71.6 °F - 42.8 °F 35% 29.99 in 10.0 mi South 18.4 mph 23.0 mph N/A   Mostly Cloudy
5:16 PM 71.6 °F - 44.6 °F 38% 29.99 in 10.0 mi South 17.3 mph - N/A   Mostly Cloudy
5:37 PM 71.6 °F - 44.6 °F 38% 29.98 in 10.0 mi South 12.7 mph - N/A   Scattered Clouds
5:57 PM 71.6 °F - 44.6 °F 38% 29.98 in 7.0 mi South 13.8 mph 18.4 mph N/A   Scattered Clouds
6:17 PM 71.6 °F - 44.6 °F 38% 29.98 in 10.0 mi South 13.8 mph - N/A   Scattered Clouds
6:37 PM 68.0 °F - 44.6 °F 43% 29.97 in 10.0 mi South 13.8 mph - N/A   Scattered Clouds
6:57 PM 68.0 °F - 44.6 °F 43% 29.97 in 10.0 mi South 13.8 mph - N/A   Scattered Clouds
7:17 PM 66.2 °F - 42.8 °F 43% 29.97 in 10.0 mi SSW 11.5 mph - N/A   Clear
7:37 PM 62.6 °F - 42.8 °F 48% 29.97 in 10.0 mi South 8.1 mph - N/A   Clear
7:57 PM 60.8 °F - 42.8 °F 52% 29.97 in 10.0 mi South 6.9 mph - N/A   Clear
8:17 PM 59.0 °F - 42.8 °F 55% 29.97 in 10.0 mi South 6.9 mph - N/A   Clear
8:37 PM 59.0 °F - 42.8 °F 55% 29.97 in 10.0 mi South 8.1 mph - N/A   Clear
8:57 PM 59.0 °F - 42.8 °F 55% 29.96 in 10.0 mi SSE 10.4 mph - N/A   Clear
9:17 PM 59.0 °F - 42.8 °F 55% 29.97 in 10.0 mi SSE 10.4 mph - N/A   Clear
9:37 PM 59.0 °F - 44.6 °F 59% 29.97 in 10.0 mi SSE 8.1 mph - N/A   Clear
9:57 PM 55.4 °F - 42.8 °F 63% 29.97 in 10.0 mi SSE 9.2 mph - N/A   Clear
10:17 PM 55.4 °F - 42.8 °F 63% 29.97 in 10.0 mi SSE 10.4 mph - N/A   Clear
10:37 PM 55.4 °F - 42.8 °F 63% 29.97 in 10.0 mi SSE 9.2 mph - N/A   Clear
10:56 PM 55.4 °F - 44.6 °F 67% 29.97 in 10.0 mi SSE 10.4 mph - N/A   Clear
11:16 PM 55.4 °F - 44.6 °F 67% 29.95 in 10.0 mi SSE 13.8 mph - N/A   Clear
11:37 PM 55.4 °F - 44.6 °F 67% 29.94 in 10.0 mi SSE 12.7 mph - N/A   Clear
11:56 PM 55.4 °F - 44.6 °F 67% 29.94 in 10.0 mi SSE 15.0 mph - N/A   Clear